Вернуться в каталог

TZINGHUA 1

АктивенНаукаSSO
NORAD 26385·PAYLOAD·🇨🇳 China

Запущен Jun 28, 2000 с Plesetsk Cosmodrome

Loading…

Ближайшие Пролёты (ближайшие 24 часа)

TLE

СвежийSource: Space-Track

Эпоха: Sep 14, 2026, 08:00 UTC

1 26385U 00033B   26257.33361326  .00000392  00000-0  75858-4 0  9990
2 26385  97.8921 227.5685 0014545 171.9946 188.1494 14.68345477399963

Отслеживайте TZINGHUA 1 в реальном времени с AllMySat

Download on the App Store